Location: Boiro
(42.6475°N, 8.8834°W)
Time: 16:00:21
(UTC+02:00)

Explorer 7 - Pass Details

Date: 05 July 2022
Orbit: 482 x 668 km, 50.3° (Epoch: 15 August)

Event Time Altitude Azimuth Distance (km) Brightness Sun altitude
Rises 03:11:20 0° 294° (WNW) 3,003 10.8 -24.2°
Reaches altitude 10° 03:13:54 10° 303° (WNW) 2,077 10.0 -24.1°
Maximum altitude 03:18:18 35° 9° (N) 1,045 8.8 -24.0°
Drops below altitude 10° 03:22:33 10° 76° (ENE) 1,998 9.9 -23.8°
Sets 03:24:58 0° 86° (E) 2,872 10.7 -23.7°
